{"data":{"norad_id":48808,"intl_designator":"2021-047A","name":"FENGYUN 4B","alt_names":[],"object_type":"PAYLOAD","status":"ACTIVE","operator":null,"country":"PRC","launch_date":"2021-06-02","launch_site_code":"XICLF","launch_vehicle":null,"mission":null,"orbit_class":"UNKNOWN","rcs_meters":null,"size_class":null,"mass_kg":null,"dimensions":null,"purposes":["comms"],"wikipedia_slug":null,"has_3d_model":false,"image_url":null,"decayed_at":null,"tle_current":{"epoch":"2026-09-20T00:18:46.579968Z","epoch_age_seconds":64065,"freshness":"FRESH","line1":"1 48808U 21047A   26263.01303912 -.00000335  00000+0  00000+0 0  9990","line2":"2 48808   0.3857  80.9618 0008231 281.5653 105.7132  1.00277329 19526","mean_motion":1.00277329,"eccentricity":0.0008231,"inclination_deg":0.3857,"raan_deg":80.9618,"arg_perigee_deg":281.5653,"mean_anomaly_deg":105.7132,"bstar":0,"rev_number":1952,"period_min":1436.017507008,"perigee_km":35750.336336656,"apogee_km":35819.74536003,"semimajor_km":42163.177848343,"source":"CELESTRAK","updated_at":"2026-09-20T09:00:35.297944Z"}}}